User: anonymous   Login
Location: Unspecified
(0.0000°N, 0.0000°E)
Time: 22:13:17
(UTC+01:00)
Language:

Palapa 6 Rocket - Orbit

View from above orbital plane
View from above orbital plane
View from above satellite
View from above satellite

Ground track
Ground track

The orbit data is extracted from the following two-line orbital elements,

1 20571U 90034B   17024.17093834  .00000796  00000-0  71355-4 0  9997
2 20571  22.7484 321.9931 0508792 342.3143  16.0191 14.11835488371656
Epoch (UTC): 24 January 2017 04:06:09
Eccentricity: 0.0508792
inclination: 22.7484°
perigee height: 485 km
apogee height: 1221 km
right ascension of ascending node: 321.9931°
argument of perigee: 342.3143°
revolutions per day: 14.11835488
mean anomaly at epoch: 16.0191°
orbit number at epoch: 37165

The dashed part of the orbit path shows where the satellite is in the earth's shadow,  

DLR